Dickinson, ND

7:49 PM MST on February 24, 2017 (GMT -0700)
Dickinson Municipal

Weather History for KDIK - September, 2014

Change the Weather History Date:

Saturday, September 20, 2014

  Actual Average Record
Temperature  
Mean Temperature 58 °F 55 °F  
Max Temperature 72 °F 69 °F 94 °F (1938)
Min Temperature 44 °F 41 °F 23 °F (1995)
Degree Days  
Heating Degree Days 7 10  
Month to date heating degree days 206 140  
Since 1 July heating degree days 307 226  
Cooling Degree Days 0 0  
Month to date cooling degree days 1 30  
Year to date cooling degree days 233 416  
Growing Degree Days 9 (Base 50)    
Moisture  
Dew Point 41 °F    
Average Humidity 56    
Maximum Humidity 83    
Minimum Humidity 29    
Precipitation  
Precipitation 0.00 in 0.05 in 1.42 in (1955)
Month to date precipitation 0.77 0.98  
Year to date precipitation 20.54 13.27  
Sea Level Pressure  
Sea Level Pressure 30.01 in    
Wind  
Wind Speed 15 mph (WNW)    
Max Wind Speed 32 mph    
Max Gust Speed 39 mph    
Visibility 10 miles    
Events      
T = Trace of Precipitation, MM = Missing Value Source: NWS Daily Summary

Daily Weather History Graph

Daily Weather History Graph

Search for Another Location

Airport or City:

Trip Planner

Search our weather history database for the weather conditions in past years. The results will help you decide how hot, cold, wet, or windy it might be!

Date:

Astronomy

Sep. 20, 2014 Rise Set
Actual Time 6:35 AM MDT 6:52 PM MDT
Civil Twilight 6:05 AM MDT 7:23 PM MDT
Nautical Twilight 5:29 AM MDT 7:58 PM MDT
Astronomical Twilight 4:52 AM MDT 8:35 PM MDT
Moon 3:06 AM MDT (9/20) 5:05 PM MDT (9/20)
Length of Visible Light 13h 17m
Length of Day
12h 17m
Waning Crescent, 11% of the Moon is Illuminated
Sep 20
Waning Crescent
Sep 24
New
Oct 1
First Quarter
Oct 8
Full
Oct 15
Last Quarter

Hourly Weather History & Observations

Time (MDT) Temp. Windchill Dew Point Humidity Pressure Visibility Wind Dir Wind Speed Gust Speed Precip Events Conditions
12:56 AM 52.0 °F - 46.0 °F 80% 29.85 in 10.0 mi West 10.4 mph - N/A   Clear
1:56 AM 51.1 °F - 45.0 °F 80% 29.86 in 10.0 mi West 8.1 mph - N/A   Clear
2:56 AM 51.1 °F - 45.0 °F 80% 29.86 in 10.0 mi West 8.1 mph - N/A   Clear
3:56 AM 50.0 °F - 45.0 °F 83% 29.87 in 10.0 mi West 6.9 mph - N/A   Clear
4:56 AM 54.0 °F - 46.9 °F 77% 29.86 in 10.0 mi West 10.4 mph - N/A   Partly Cloudy
5:56 AM 53.1 °F - 46.9 °F 80% 29.87 in 10.0 mi West 10.4 mph - N/A   Scattered Clouds
6:56 AM 54.0 °F - 46.9 °F 77% 29.89 in 10.0 mi West 13.8 mph - N/A   Clear
7:56 AM 55.9 °F - 48.0 °F 75% 29.92 in 10.0 mi West 15.0 mph - N/A   Partly Cloudy
8:56 AM 61.0 °F - 46.9 °F 60% 29.96 in 10.0 mi WNW 28.8 mph 35.7 mph N/A   Clear
9:56 AM 63.0 °F - 48.0 °F 58% 29.98 in 10.0 mi NW 17.3 mph - N/A   Clear
10:56 AM 68.0 °F - 45.0 °F 43% 30.00 in 10.0 mi NW 25.3 mph 32.2 mph N/A   Clear
11:56 AM 68.0 °F - 41.0 °F 37% 30.02 in 10.0 mi NW 25.3 mph 34.5 mph N/A   Clear
12:56 PM 70.0 °F - 39.0 °F 32% 30.04 in 10.0 mi NNW 24.2 mph 34.5 mph N/A   Clear
1:56 PM 71.1 °F - 37.0 °F 29% 30.04 in 10.0 mi NW 24.2 mph 34.5 mph N/A   Clear
2:56 PM 72.0 °F - 37.0 °F 28% 30.04 in 10.0 mi NW 20.7 mph 31.1 mph N/A   Clear
3:56 PM 71.1 °F - 37.0 °F 29% 30.06 in 10.0 mi NW 20.7 mph 31.1 mph N/A   Clear
4:56 PM 68.0 °F - 37.0 °F 32% 30.07 in 10.0 mi NW 18.4 mph 28.8 mph N/A   Clear
5:56 PM 66.9 °F - 35.1 °F 31% 30.09 in 10.0 mi NW 16.1 mph 24.2 mph N/A   Clear
6:56 PM 61.0 °F - 34.0 °F 36% 30.11 in 10.0 mi NW 10.4 mph - N/A   Clear
7:56 PM 52.0 °F - 36.0 °F 54% 30.14 in 10.0 mi WNW 8.1 mph - N/A   Clear
8:56 PM 48.0 °F - 36.0 °F 63% 30.16 in 10.0 mi WNW 8.1 mph - N/A   Clear
9:56 PM 46.0 °F 42.5 °F 35.1 °F 66% 30.19 in 10.0 mi WNW 6.9 mph - N/A   Clear
10:56 PM 48.0 °F - 36.0 °F 63% 30.19 in 10.0 mi NW 8.1 mph - N/A   Clear
11:56 PM 46.9 °F - 35.1 °F 63% 30.20 in 10.0 mi West 5.8 mph - N/A   Clear